Location: *
(40.7873°S, 98.7174°E)
Time: 10:37:46
(UTC+00:00)

Cosmos 1302 Rocket - Pass Details

Date: 24 May 2022
Orbit: 757 x 775 km, 74.0° (Epoch: 04 July)

Event Time Altitude Azimuth Distance (km) Brightness Sun altitude
Rises 11:07:22 0° 346° (NNW) 3,209 7.7 -10.8°
Reaches altitude 10° 11:09:43 10° 347° (NNW) 2,293 6.9 -11.2°
Maximum altitude 11:14:55 78° 73° (ENE) 791 4.0 -12.1°
Drops below altitude 10° 11:20:13 10° 158° (SSE) 2,334 6.1 -13.1°
Enters shadow 11:21:44 - 159° (SSE) 2,921 6.7 -13.4°
